Regional Weather Roundup
Issued by NWS Jackson, KY

Home | Current Version | Previous Version | Text Only | Print | Product List | Glossary On
Versions: 1 2 3 4 5 6 7 8 9 10 11 12 13 14 15 16 17 18 19 20 21 22 23 24 25 26 27 28 29 30 31 32 33 34 35 36 37 38 39 40 41 42 43 44 45 46 47 48 49 50
000
ASUS43 KJKL 011710
RWRJKL

EAST KENTUCKY HOURLY WEATHER ROUNDUP
NATIONAL WEATHER SERVICE JACKSON KY
100 PM EDT WED JUL 01 2015

NOTE: "FAIR" INDICATES FEW OR NO CLOUDS BELOW 12,000 FEET WITH
NO SIGNIFICANT WEATHER AND/OR OBSTRUCTIONS TO VISIBILITY.

* THESE REPORTS ARE NOT UNDER NWS QUALITY CONTROL AND MAY NOT
  REPORT WEATHER SUCH AS PRECIPITATION AND FOG.

KYZ079-080-083-085-087-088-110-112-115-119-120-011800
...EASTERN KENTUCKY...

CITY           SKY/WX    TMP DP  RH WIND       PRES   REMARKS
JACKSON        PTSUNNY   78  68  71 CALM      29.98F
LONDON         CLOUDY    79  65  62 W9        29.99S
SOMERSET*      MOSUNNY   73  68  83 W8        30.00S
MONTICELLO*    CLOUDY    77  73  87 SW9       30.02S
MIDDLESBORO*   CLOUDY    79  69  72 CALM      30.00S
HARLAN APT*      N/A     79  64  61 MISG      30.01S
BLACK MTN*       N/A     70  64  83 SE5         N/A
PIKEVILLE APT* PTSUNNY   77  68  73 SW6       29.98F
BIG SANDY*     PTSUNNY   78  69  76 CALM      29.97F
MOREHEAD APT*  PTSUNNY   75  68  78 VRB5      29.99S
$$

KYZ035-036-041-042-044-050-067-078-099-011800
...CENTRAL KENTUCKY...

CITY           SKY/WX    TMP DP  RH WIND       PRES   REMARKS
MT STERLING*   MOSUNNY   77  68  73 N3        29.98F
FLEMING/MASON* MOSUNNY   75  66  73 CALM      29.97F
DANVILLE*      CLOUDY    75  68  78 SW5       29.99S
RICHMOND*      CLOUDY    77  68  73 SW10      29.97S
LEXINGTON      PTSUNNY   77  69  76 NW5       29.96F
FRANKFORT      PTSUNNY   77  68  73 N5        29.95F
$$

KYZ091>093-OHZ055-061-077-WVZ005-015-034-035-042-011800
...SOUTHERN OHIO/WEST VIRGINIA...

CITY           SKY/WX    TMP DP  RH WIND       PRES   REMARKS
COVINGTON      PTSUNNY   76  61  59 CALM      29.96S
COLUMBUS       PTSUNNY   74  59  59 NW7       29.94R
DAYTON         PTSUNNY   76  60  57 N7        29.97R
WILMINGTON     PTSUNNY   74  58  57 VRB7      29.96R
HUNTINGTON     CLOUDY    72  66  81 W3        29.96S
CHARLESTON     PTSUNNY   73  65  75 SW8       29.97S
PINEVILLE*     MOSUNNY   78  69  72 MISG      30.04S
BECKLEY        PTSUNNY   74  61  63 W16       30.02F
BLUEFIELD      PTSUNNY   76  60  57 NW13G21   30.06S
$$

VAZ002-007-008-TNZ017-027-036-066-071-011800
...SOUTHWEST VIRGINIA/EAST TENNESSEE...

CITY           SKY/WX    TMP DP  RH WIND       PRES   REMARKS
WISE*          CLOUDY    73  61  64 SW9       30.06S
JONESVILLE*      N/A    N/A N/A N/A MISG        N/A
ABINGDON*      PTSUNNY   77  65  66 W8        30.05F
BRISTOL        PTSUNNY   78  65  63 SW9       30.02F
KNOXVILLE      CLOUDY    79  70  74 S9        30.01F
OAK RIDGE      CLOUDY    77  70  79 S7        30.02S
CROSSVILLE     CLOUDY    74  67  78 W7        30.07R
NASHVILLE      CLOUDY    77  75  93 SW6       30.01R
$$

...KEY TO REMARKS...
VSB - VISIBILITY IN MILES
WCI - WIND CHILL INDEX
HX  - HEAT INDEX

$$


USA.gov is the U.S. government's official web portal to all federal, state and local government web resources and services.